timestamp,wind_dir_avg,wind_spd_avg,wind_spd_max_dir,wind_spd_gust,battery_voltage,lat,long
2023-12-15 00:04:00+00:00,296.0,12.07,291.0,15.16,12.33,47.59359,-54.27349
2023-12-15 00:14:00+00:00,309.0,9.05,313.0,10.36,12.25,47.59359,-54.27349
2023-12-15 00:24:00+00:00,298.0,8.0,287.0,12.52,12.25,47.59359,-54.27349
2023-12-15 00:34:00+00:00,302.0,6.26,298.0,7.71,12.25,47.59359,-54.27349
2023-12-15 00:44:00+00:00,295.0,8.48,290.0,11.4,12.25,47.59359,-54.27349
2023-12-15 00:54:00+00:00,302.0,8.42,304.0,9.77,12.25,47.59359,-54.27349
2023-12-15 01:04:00+00:00,302.0,8.28,293.0,13.57,12.25,47.59359,-54.27349
2023-12-15 01:14:00+00:00,312.0,8.56,313.0,10.13,12.25,47.59359,-54.27349
2023-12-15 01:24:00+00:00,306.0,8.45,280.0,14.3,12.25,47.59359,-54.27349
2023-12-15 01:34:00+00:00,292.0,7.37,294.0,8.35,12.25,47.59359,-54.27349
2023-12-15 01:44:00+00:00,292.0,7.4,286.0,10.57,12.25,47.59359,-54.27349
2023-12-15 01:54:00+00:00,294.0,7.81,300.0,9.79,12.25,47.59359,-54.27349
2023-12-15 02:04:00+00:00,289.0,8.63,285.0,11.79,12.25,47.59359,-54.27349
2023-12-15 02:14:00+00:00,285.0,8.2,281.0,12.15,12.25,47.59359,-54.27349
2023-12-15 02:24:00+00:00,270.0,6.9,266.0,8.09,12.25,47.59359,-54.27349
2023-12-15 02:34:00+00:00,298.0,7.48,302.0,9.65,12.25,47.59359,-54.27349
2023-12-15 02:44:00+00:00,288.0,7.37,288.0,8.42,12.25,47.59359,-54.27349
2023-12-15 02:54:00+00:00,289.0,6.33,291.0,8.5,12.25,47.59359,-54.27349
2023-12-15 03:04:00+00:00,283.0,5.72,278.0,8.42,12.25,47.59359,-54.27349
2023-12-15 03:14:00+00:00,289.0,7.41,296.0,8.47,12.17,47.59359,-54.27349
2023-12-15 03:24:00+00:00,291.0,8.0,299.0,9.24,12.17,47.59359,-54.27349
2023-12-15 03:34:00+00:00,287.0,6.57,285.0,7.86,12.17,47.59359,-54.27349
2023-12-15 03:44:00+00:00,297.0,5.0,316.0,7.0,12.17,47.59359,-54.27349
2023-12-15 03:54:00+00:00,311.0,6.48,310.0,8.36,12.17,47.59359,-54.27349
2023-12-15 04:04:00+00:00,291.0,6.54,291.0,8.15,12.17,47.59359,-54.27349
2023-12-15 04:14:00+00:00,295.0,8.07,298.0,9.22,12.17,47.59359,-54.27349
2023-12-15 04:24:00+00:00,296.0,7.24,302.0,8.63,12.17,47.59359,-54.27349
2023-12-15 04:34:00+00:00,305.0,7.14,304.0,9.1,12.17,47.59359,-54.27349
2023-12-15 04:44:00+00:00,294.0,7.61,301.0,9.32,12.17,47.59359,-54.27349
2023-12-15 04:54:00+00:00,291.0,6.87,289.0,8.03,12.17,47.59359,-54.27349
2023-12-15 05:04:00+00:00,281.0,7.61,294.0,9.51,12.17,47.59359,-54.27349
2023-12-15 05:14:00+00:00,279.0,8.99,275.0,13.45,12.17,47.59359,-54.27349
2023-12-15 05:24:00+00:00,278.0,7.82,278.0,11.07,12.17,47.59359,-54.27349
2023-12-15 05:34:00+00:00,282.0,8.47,282.0,10.49,12.17,47.59359,-54.27349
2023-12-15 05:44:00+00:00,276.0,9.04,277.0,13.48,12.17,47.59359,-54.27349
2023-12-15 05:54:00+00:00,285.0,8.19,282.0,10.57,12.17,47.59359,-54.27349
2023-12-15 06:04:00+00:00,270.0,9.11,270.0,12.17,12.17,47.59359,-54.27349
2023-12-15 06:14:00+00:00,291.0,8.11,284.0,13.13,12.09,47.59359,-54.27349
2023-12-15 06:24:00+00:00,290.0,6.84,288.0,8.38,12.09,47.59359,-54.27349
2023-12-15 06:34:00+00:00,310.0,7.91,308.0,9.39,12.09,47.59359,-54.27349
2023-12-15 06:44:00+00:00,302.0,8.23,308.0,9.98,12.09,47.59359,-54.27349
2023-12-15 06:54:00+00:00,309.0,7.73,309.0,9.11,12.09,47.59359,-54.27349
2023-12-15 07:04:00+00:00,309.0,7.98,302.0,9.56,12.09,47.59359,-54.27349
2023-12-15 07:14:00+00:00,322.0,7.55,312.0,9.27,12.09,47.59359,-54.27349
2023-12-15 07:24:00+00:00,298.0,7.27,298.0,8.97,12.09,47.59359,-54.27349
2023-12-15 07:34:00+00:00,310.0,6.06,313.0,6.87,12.09,47.59359,-54.27349
2023-12-15 07:44:00+00:00,302.0,5.23,316.0,7.29,12.09,47.59359,-54.27349
2023-12-15 07:54:00+00:00,290.0,7.09,291.0,8.39,12.09,47.59359,-54.27349
2023-12-15 08:04:00+00:00,306.0,5.54,312.0,7.01,12.09,47.59359,-54.27349
2023-12-15 08:14:00+00:00,284.0,5.3,284.0,7.71,12.09,47.59359,-54.27349
2023-12-15 08:24:00+00:00,269.0,5.21,267.0,7.65,12.09,47.59359,-54.27349
2023-12-15 08:34:00+00:00,264.0,4.64,274.0,7.07,12.09,47.59359,-54.27349
2023-12-15 08:44:00+00:00,290.0,4.89,291.0,5.63,12.09,47.59359,-54.27349
2023-12-15 08:54:00+00:00,271.0,4.52,271.0,6.58,12.09,47.59359,-54.27349
2023-12-15 09:04:00+00:00,272.0,4.1,283.0,5.59,12.09,47.59359,-54.27349
2023-12-15 09:14:00+00:00,258.0,4.32,262.0,6.55,12.09,47.59359,-54.27349
2023-12-15 09:24:00+00:00,292.0,4.9,300.0,5.89,12.09,47.59359,-54.27349
2023-12-15 09:34:00+00:00,258.0,4.59,256.0,7.3,12.09,47.59359,-54.27349
2023-12-15 09:44:00+00:00,276.0,4.74,280.0,6.39,12.09,47.59359,-54.27349
2023-12-15 09:54:00+00:00,261.0,4.91,268.0,7.28,12.09,47.59359,-54.27349
2023-12-15 10:04:00+00:00,263.0,5.36,259.0,7.42,12.09,47.59359,-54.27349
2023-12-15 10:14:00+00:00,263.0,4.81,259.0,7.15,12.09,47.59359,-54.27349
2023-12-15 10:24:00+00:00,276.0,4.58,276.0,5.41,12.09,47.59359,-54.27349
2023-12-15 10:34:00+00:00,277.0,5.04,279.0,5.94,12.09,47.59359,-54.27349
2023-12-15 10:44:00+00:00,288.0,4.77,294.0,6.33,12.09,47.59359,-54.27349
2023-12-15 10:54:00+00:00,285.0,4.35,286.0,5.22,12.09,47.59359,-54.27349
2023-12-15 11:04:00+00:00,272.0,4.25,269.0,5.08,12.09,47.59359,-54.27349
2023-12-15 11:14:00+00:00,267.0,3.66,259.0,4.21,12.09,47.59359,-54.27349
2023-12-15 11:24:00+00:00,255.0,3.34,255.0,3.84,12.09,47.59359,-54.27349
2023-12-15 11:34:00+00:00,246.0,4.22,256.0,4.83,12.09,47.59359,-54.27349
2023-12-15 11:44:00+00:00,247.0,4.17,245.0,4.9,12.09,47.59359,-54.27349
2023-12-15 11:54:00+00:00,255.0,6.91,254.0,7.74,12.09,47.59359,-54.27349
2023-12-15 12:04:00+00:00,243.0,6.74,234.0,8.93,12.09,47.59359,-54.27349
2023-12-15 12:14:00+00:00,234.0,6.96,232.0,8.93,12.09,47.59359,-54.27349
2023-12-15 12:24:00+00:00,248.0,6.03,251.0,6.84,12.09,47.59359,-54.27349
2023-12-15 12:34:00+00:00,244.0,5.36,240.0,6.61,12.09,47.59359,-54.27349
2023-12-15 12:44:00+00:00,241.0,7.59,254.0,8.83,12.09,47.59359,-54.27349
2023-12-15 12:54:00+00:00,246.0,8.28,249.0,9.42,12.09,47.59359,-54.27349
2023-12-15 13:04:00+00:00,225.0,7.14,212.0,9.31,12.09,47.59359,-54.27349
2023-12-15 13:14:00+00:00,219.0,10.1,223.0,11.68,12.89,47.59359,-54.27349
2023-12-15 13:24:00+00:00,219.0,9.29,223.0,10.96,12.89,47.59359,-54.27349
2023-12-15 13:34:00+00:00,226.0,8.76,231.0,10.59,12.89,47.59359,-54.27349
2023-12-15 13:44:00+00:00,231.0,10.83,228.0,14.58,12.89,47.59359,-54.27349
2023-12-15 13:54:00+00:00,230.0,12.95,230.0,14.68,12.89,47.59359,-54.27349
2023-12-15 14:04:00+00:00,241.0,12.71,239.0,14.35,12.89,47.59359,-54.27349
2023-12-15 14:14:00+00:00,243.0,12.25,249.0,14.76,13.68,47.59359,-54.27349
2023-12-15 14:24:00+00:00,237.0,13.66,240.0,16.05,13.68,47.59359,-54.27349
2023-12-15 14:34:00+00:00,233.0,12.35,235.0,13.66,13.68,47.59359,-54.27349
2023-12-15 14:44:00+00:00,246.0,12.33,249.0,13.58,13.68,47.59359,-54.27349
2023-12-15 14:54:00+00:00,232.0,14.21,242.0,17.2,13.68,47.59359,-54.27349
2023-12-15 15:04:00+00:00,227.0,13.4,215.0,16.93,13.68,47.59359,-54.27349
2023-12-15 15:14:00+00:00,235.0,15.19,233.0,18.24,13.6,47.59359,-54.27349
2023-12-15 15:24:00+00:00,230.0,14.31,231.0,18.18,13.6,47.59359,-54.27349
2023-12-15 15:34:00+00:00,228.0,14.31,226.0,18.0,13.6,47.59359,-54.27349
2023-12-15 15:44:00+00:00,233.0,16.98,230.0,19.42,13.6,47.59359,-54.27349
2023-12-15 15:54:00+00:00,230.0,17.31,230.0,21.68,13.6,47.59359,-54.27349
2023-12-15 16:04:00+00:00,238.0,16.45,249.0,18.72,13.6,47.59359,-54.27349
2023-12-15 16:14:00+00:00,239.0,14.48,235.0,18.36,13.53,47.59359,-54.27349
2023-12-15 16:24:00+00:00,240.0,16.07,242.0,18.39,13.53,47.59359,-54.27349
2023-12-15 16:34:00+00:00,237.0,14.14,235.0,18.47,13.53,47.59359,-54.27349
2023-12-15 16:44:00+00:00,233.0,16.99,232.0,20.06,13.53,47.59359,-54.27349
2023-12-15 16:54:00+00:00,239.0,17.86,238.0,20.79,13.53,47.59359,-54.27349
2023-12-15 17:04:00+00:00,237.0,16.87,235.0,19.8,13.53,47.59359,-54.27349
2023-12-15 17:14:00+00:00,246.0,17.0,245.0,19.49,13.68,47.59359,-54.27349
2023-12-15 17:24:00+00:00,237.0,19.16,241.0,21.72,13.68,47.59359,-54.27349
2023-12-15 17:34:00+00:00,240.0,18.79,236.0,21.98,13.68,47.59359,-54.27349
2023-12-15 17:44:00+00:00,236.0,18.65,237.0,20.45,13.68,47.59359,-54.27349
2023-12-15 17:54:00+00:00,242.0,17.54,241.0,19.99,13.68,47.59359,-54.27349
2023-12-15 18:04:00+00:00,239.0,18.74,239.0,20.23,13.68,47.59359,-54.27349
2023-12-15 18:14:00+00:00,237.0,19.53,234.0,23.29,13.76,47.59359,-54.27349
2023-12-15 18:24:00+00:00,238.0,16.41,236.0,20.72,13.76,47.59359,-54.27349
2023-12-15 18:34:00+00:00,228.0,16.68,228.0,20.63,13.76,47.59359,-54.27349
2023-12-15 18:44:00+00:00,231.0,20.09,231.0,22.49,13.76,47.59359,-54.27349
2023-12-15 18:54:00+00:00,238.0,19.25,234.0,20.94,13.76,47.59359,-54.27349
2023-12-15 19:04:00+00:00,234.0,19.49,234.0,21.92,13.76,47.59359,-54.27349
2023-12-15 19:14:00+00:00,235.0,18.97,236.0,21.52,13.13,47.59359,-54.27349
2023-12-15 19:24:00+00:00,234.0,18.49,234.0,21.54,13.13,47.59359,-54.27349
2023-12-15 19:34:00+00:00,234.0,19.37,227.0,21.27,13.13,47.59359,-54.27349
2023-12-15 19:44:00+00:00,243.0,18.78,243.0,22.79,13.13,47.59359,-54.27349
2023-12-15 19:54:00+00:00,241.0,19.31,242.0,20.76,13.13,47.59359,-54.27349
2023-12-15 20:04:00+00:00,239.0,17.98,240.0,20.74,13.13,47.59359,-54.27349
2023-12-15 20:14:00+00:00,241.0,18.3,244.0,23.46,12.49,47.59359,-54.27349
2023-12-15 20:24:00+00:00,239.0,16.83,243.0,20.18,12.49,47.59359,-54.27349
2023-12-15 20:34:00+00:00,238.0,15.91,237.0,20.8,12.49,47.59359,-54.27349
2023-12-15 20:44:00+00:00,236.0,19.19,235.0,21.24,12.49,47.59359,-54.27349
2023-12-15 20:54:00+00:00,235.0,15.1,236.0,20.22,12.49,47.59359,-54.27349
2023-12-15 21:04:00+00:00,235.0,14.28,243.0,18.48,12.49,47.59359,-54.27349
2023-12-15 21:14:00+00:00,235.0,15.04,242.0,20.08,12.41,47.59359,-54.27349
2023-12-15 21:24:00+00:00,240.0,14.13,245.0,19.98,12.41,47.59359,-54.27349
2023-12-15 21:34:00+00:00,236.0,11.98,236.0,14.56,12.41,47.59359,-54.27349
2023-12-15 21:44:00+00:00,246.0,11.41,244.0,13.49,12.41,47.59359,-54.27349
2023-12-15 21:54:00+00:00,233.0,14.58,238.0,19.71,12.41,47.59359,-54.27349
2023-12-15 22:04:00+00:00,237.0,16.06,236.0,19.48,12.41,47.59359,-54.27349
2023-12-15 22:14:00+00:00,242.0,15.17,240.0,18.3,12.41,47.59359,-54.27349
2023-12-15 22:24:00+00:00,242.0,10.78,243.0,13.35,12.41,47.59359,-54.27349
2023-12-15 22:34:00+00:00,231.0,10.02,238.0,13.99,12.41,47.59359,-54.27349
2023-12-15 22:44:00+00:00,239.0,14.05,248.0,15.79,12.41,47.59359,-54.27349
2023-12-15 22:54:00+00:00,236.0,12.1,240.0,14.43,12.41,47.59359,-54.27349
2023-12-15 23:04:00+00:00,235.0,12.32,246.0,14.25,12.41,47.59359,-54.27349
2023-12-15 23:14:00+00:00,237.0,12.88,247.0,15.21,12.33,47.59359,-54.27349
2023-12-15 23:24:00+00:00,233.0,12.94,236.0,14.54,12.33,47.59359,-54.27349
2023-12-15 23:34:00+00:00,236.0,12.17,239.0,15.47,12.33,47.59359,-54.27349
2023-12-15 23:44:00+00:00,239.0,13.81,246.0,18.48,12.33,47.59359,-54.27349
2023-12-15 23:54:00+00:00,230.0,11.91,232.0,13.68,12.33,47.59359,-54.27349
